SPOC (46921 NORAD) Tracking and Keplerian Element Data

This shows tracking and keplerian element data for the satellite.

Feedback or suggestion? Click here.




ElementValue
Catalog46921
NameSPOC
Epoch Orbit1145
Epoch Day17.81146789
Epoch Year2021
RAAN5.596
Inclination51.644
Eccentricity0.0001234
Argument of Perigee220.6762
Mean Anonmoly139.4136
Mean Motion15.51515903
Decay Rate5.637E-05
L11 46921U 98067RR 21017.81146789 .00005637 00000-0 10120-3 0 9995
L22 46921 51.6440 5.5960 0001234 220.6762 139.4136 15.51515903 11457

Live tracking and technical data element details for SPOC (NORAD 46921). SPOC can be tracked NOW for your location showing map with azimuth and elevation plus other details from your city location.

Track the satellite on the map from your city or location and see movement details for azimuth, elevation, latitude, longitude, range, height, and movement on the map or in text.







IsCatalogInMostPopularTable: catalog: 46921, numindb: 32
Update: records affected: 1



GetName: 46921 SPOC

Hit Count: updated at: Tue, 19 Jan 2021 02:02:44 GMT